StationID,Date,MaxTemp,MinTemp,Precipitation,Snowfall,SnowDepth
"CA002201799","1994-05-17",62.96,33.08,,,
"CA002201799","1994-05-18",54.68,32.00,,,
"CA002201799","1994-05-23",65.30,39.20,,,
"CA002201799","1994-05-24",80.78,33.08,,,
"CA002201799","1994-05-26",70.16,48.02,,,
"CA002201799","1994-05-29",61.70,30.02,,,
"CA002201799","1994-05-30",59.36,39.38,,,
"CA002201799","1994-05-31",70.34,29.12,,,
"CA002201799","1994-07-29",80.42,47.48,,,
"CA002201799","1994-07-30",72.68,49.28,,,
"CA002201799","1994-07-31",74.48,41.00,,,
"CA002201799","1994-08-01",78.44,42.08,,,
"CA002201799","1994-08-02",80.24,55.76,,,
"CA002201799","1994-08-03",87.44,51.62,,,
"CA002201799","1994-08-04",92.30,58.10,,,
"CA002201799","1994-08-05",77.90,54.68,,,
"CA002201799","1994-08-06",72.14,46.04,,,
"CA002201799","1994-08-07",71.06,40.64,,,
"CA002201799","1994-08-08",81.14,42.08,,,
"CA002201799","1994-08-09",83.30,46.76,,,
"CA002201799","1994-08-11",72.68,51.08,,,
"CA002201799","1994-08-12",73.76,39.92,,,
"CA002201799","1994-08-13",83.12,45.86,,,
"CA002201799","1994-08-14",69.98,55.04,,,
"CA002201799","1994-08-18",88.16,58.64,,,
"CA002201799","1994-08-19",69.98,51.98,,,
"CA002201799","1994-08-21",75.02,51.08,,,
"CA002201799","1994-08-22",77.00,48.56,,,
"CA002201799","1994-08-23",58.28,50.18,,,
"CA002201799","1994-08-24",62.78,39.56,,,
"CA002201799","1994-08-25",66.74,28.58,,,
"CA002201799","1994-08-26",74.30,42.08,,,
"CA002201799","1994-08-30",75.38,36.50,,,
"CA002201799","1994-08-31",73.76,42.26,,,
"CA002201799","1994-09-01",74.84,43.52,,,
"CA002201799","1994-09-02",73.76,40.28,,,
"CA002201799","1994-09-03",68.72,41.54,,,
"CA002201799","1994-09-04",59.90,40.28,,,
"CA002201799","1994-09-05",61.88,36.14,,,
"CA002201799","1994-09-07",50.00,41.36,,,
"CA002201799","1994-09-09",57.56,27.86,,,
"CA002201799","1994-09-11",43.16,35.78,,,
"CA002201799","1994-09-12",52.70,30.74,,,
"CA002201799","1994-09-13",53.42,39.74,,,
"CA002201799","1994-09-14",54.14,34.16,,,
"CA002201799","1994-09-15",66.56,32.90,,,
"CA002201799","1994-09-16",69.26,42.08,,,
"CA002201799","1994-09-17",75.92,35.78,,,
"CA002201799","1994-09-18",66.56,48.20,,,
"CA002201799","1994-09-21",61.88,32.00,,,
"CA002201799","1994-09-24",61.16,27.32,,,
"CA002201799","1994-09-25",67.10,42.08,,,
"CA002201799","1994-09-26",46.04,34.52,,,
"CA002201799","1994-09-27",48.92,38.12,,,
"CA002201799","1994-09-29",47.48,23.18,,,
"CA002201799","1994-10-02",50.00,19.40,,,
"CA002201799","1994-10-03",55.58,38.30,,,
"CA002201799","1994-11-17",10.58,2.30,,,
"CA002201799","1994-11-19",19.76,-3.28,,,
"CA002201799","1994-11-20",3.56,-22.00,,,
"CA002201799","1994-11-21",4.10,-28.12,,,
"CA002201799","1994-11-22",11.30,3.38,,,
"CA002201799","1994-11-23",11.66,-5.98,,,
"CA002201799","1994-11-24",-3.64,-17.68,,,
"CA002201799","1994-11-25",-3.10,-13.36,,,
"CA002201799","1994-11-26",5.54,-10.66,,,
"CA002201799","1994-11-27",-10.30,-22.54,,,
"CA002201799","1994-11-28",-3.28,-18.76,,,
"CA002201799","1994-11-29",-5.98,-22.00,,,
"CA002201799","1994-11-30",-10.66,-22.90,,,
"CA002201799","1994-12-01",-7.78,-11.92,,,
"CA002201799","1994-12-02",-9.40,-34.42,,,
"CA002201799","1994-12-03",-13.18,-36.58,,,
"CA002201799","1994-12-04",9.32,-19.30,,,
"CA002201799","1994-12-05",8.96,-3.46,,,
"CA002201799","1994-12-09",-22.36,-40.90,,,
"CA002201799","1994-12-10",-9.04,-42.34,,,
"CA002201799","1994-12-11",-11.56,-27.04,,,
"CA002201799","1994-12-12",-2.56,-23.62,,,
"CA002201799","1994-12-13",2.30,-9.04,,,
"CA002201799","1994-12-14",18.32,-1.48,,,
"CA002201799","1994-12-15",19.04,2.12,,,
"CA002201799","1994-12-16",6.80,-0.76,,,
"CA002201799","1994-12-17",3.92,-3.10,,,
"CA002201799","1994-12-18",1.22,-5.80,,,
"CA002201799","1994-12-19",14.18,0.32,,,
"CA002201799","1994-12-20",2.84,-9.76,,,
"CA002201799","1994-12-21",17.60,-7.78,,,
"CA002201799","1994-12-22",26.42,3.02,,,
"CA002201799","1994-12-23",23.90,-12.64,,,
"CA002201799","1994-12-24",19.94,-13.18,,,
"CA002201799","1994-12-25",21.56,-1.30,,,
"CA002201799","1994-12-26",0.32,-19.66,,,
"CA002201799","1994-12-27",-12.28,-24.34,,,
"CA002201799","1994-12-28",0.32,-17.14,,,
"CA002201799","1994-12-29",3.56,-13.18,,,
"CA002201799","1994-12-30",15.08,-5.62,,,
"CA002201799","1994-12-31",19.22,6.44,,,
"CA002201799","1995-01-01",9.32,-15.70,,,
"CA002201799","1995-01-02",2.48,-14.08,,,
"CA002201799","1995-01-03",-2.02,-19.84,,,
"CA002201799","1995-01-05",6.62,-8.14,,,
"CA002201799","1995-01-06",3.20,-12.10,,,
"CA002201799","1995-01-07",-3.82,-27.22,,,
"CA002201799","1995-01-08",-27.04,-41.44,,,
"CA002201799","1995-01-09",-27.04,-40.54,,,
"CA002201799","1995-01-10",-9.76,-28.48,,,
"CA002201799","1995-01-11",-6.88,-12.46,,,
"CA002201799","1995-01-12",-4.54,-6.88,,,
"CA002201799","1995-01-13",-1.48,-6.34,,,
"CA002201799","1995-01-14",2.84,-4.90,,,
"CA002201799","1995-01-15",5.90,-0.22,,,
"CA002201799","1995-01-16",10.76,5.54,,,
"CA002201799","1995-01-17",10.76,-7.06,,,
"CA002201799","1995-01-18",15.08,6.44,,,
"CA002201799","1995-01-19",18.32,10.94,,,
"CA002201799","1995-01-20",19.40,-4.36,,,
"CA002201799","1995-01-21",19.04,-6.16,,,
"CA002201799","1995-01-22",10.76,-7.60,,,
"CA002201799","1995-01-23",6.44,-11.20,,,
"CA002201799","1995-01-24",5.36,1.76,,,
"CA002201799","1995-01-25",6.98,4.46,,,
"CA002201799","1995-01-26",7.88,2.84,,,
"CA002201799","1995-01-27",5.90,-0.94,,,
"CA002201799","1995-01-28",5.72,-11.02,,,
"CA002201799","1995-01-29",6.44,-6.52,,,
"CA002201799","1995-01-30",6.44,-2.02,,,
"CA002201799","1995-01-31",3.56,-3.64,,,
"CA002201799","1995-02-01",5.54,-10.48,,,
"CA002201799","1995-02-02",2.84,-20.92,,,
"CA002201799","1995-02-03",8.78,-19.12,,,
"CA002201799","1995-02-04",9.32,-10.66,,,
"CA002201799","1995-02-05",20.30,-9.40,,,
"CA002201799","1995-02-06",10.94,-8.68,,,
"CA002201799","1995-02-07",32.54,2.66,,,
"CA002201799","1995-02-08",22.82,-8.14,,,
"CA002201799","1995-02-09",3.92,-17.14,,,
"CA002201799","1995-02-10",-1.84,-25.06,,,
"CA002201799","1995-02-11",-4.90,-28.84,,,
"CA002201799","1995-02-12",10.76,-18.04,,,
"CA002201799","1995-02-13",13.28,-9.04,,,
"CA002201799","1995-02-14",3.56,-16.96,,,
"CA002201799","1995-02-16",1.22,,,,
"CA002201799","1995-02-20",-2.02,-23.44,,,
"CA002201799","1995-02-23",-4.72,-25.06,,,
"CA002201799","1995-02-24",-2.74,-22.00,,,
"CA002201799","1995-02-25",-1.84,-12.10,,,
"CA002201799","1995-02-26",0.50,,,,
"CA002201799","1995-02-27",4.46,-33.88,,,
"CA002201799","1995-02-28",8.96,-34.60,,,
"CA002201799","1995-03-01",22.64,6.62,,,
"CA002201799","1995-03-02",14.90,-24.70,,,
"CA002201799","1995-03-03",-4.00,-36.22,,,
"CA002201799","1995-03-04",2.84,-40.72,,,
"CA002201799","1995-03-05",8.06,-24.34,,,
"CA002201799","1995-03-06",6.62,-29.38,,,
"CA002201799","1995-03-07",8.78,-24.88,,,
"CA002201799","1995-03-08",17.06,-29.02,,,
"CA002201799","1995-03-09",20.12,-15.16,,,
"CA002201799","1995-03-10",8.96,-9.04,,,
"CA002201799","1995-03-11",9.50,-10.12,,,
"CA002201799","1995-03-13",-3.10,-28.66,,,
"CA002201799","1995-03-14",15.26,-5.98,,,
"CA002201799","1995-03-15",6.26,-9.76,,,
"CA002201799","1995-03-16",4.82,-20.56,,,
"CA002201799","1995-03-17",26.78,-0.22,,,
"CA002201799","1995-03-18",48.38,9.32,,,
"CA002201799","1995-03-19",38.30,14.18,,,
"CA002201799","1995-03-20",37.40,17.78,,,
"CA002201799","1995-03-21",21.56,5.18,,,
"CA002201799","1995-03-22",5.18,-0.04,,,
"CA002201799","1995-03-23",3.02,-12.82,,,
"CA002201799","1995-03-24",1.58,-13.72,,,
"CA002201799","1995-03-25",5.00,-19.30,,,
"CA002201799","1995-03-26",11.30,-14.44,,,
"CA002201799","1995-03-27",9.86,-24.52,,,
"CA002201799","1995-03-29",26.24,-12.82,,,
"CA002201799","1995-03-30",30.20,12.20,,,
"CA002201799","1995-03-31",40.64,10.76,,,
"CA002201799","1995-04-01",29.84,2.84,,,
"CA002201799","1995-04-02",19.04,-23.08,,,
"CA002201799","1995-04-03",9.50,-32.80,,,
"CA002201799","1995-04-04",14.36,-24.88,,,
"CA002201799","1995-04-05",20.48,2.84,,,
"CA002201799","1995-04-06",26.78,-3.64,,,
"CA002201799","1995-04-07",34.52,1.94,,,
"CA002201799","1995-04-08",34.34,8.06,,,
"CA002201799","1995-04-09",51.98,9.32,,,
"CA002201799","1995-04-10",56.84,15.08,,,
"CA002201799","1995-04-11",44.60,21.02,,,
"CA002201799","1995-04-12",41.90,10.40,,,
"CA002201799","1995-04-13",41.90,8.60,,,
"CA002201799","1995-04-14",33.26,14.54,,,
"CA002201799","1995-04-15",29.48,19.40,,,
"CA002201799","1995-04-16",39.92,21.02,,,
"CA002201799","1995-04-17",41.90,24.44,,,
"CA002201799","1995-04-18",45.50,28.04,,,
"CA002201799","1995-04-19",42.26,28.94,,,
"CA002201799","1995-04-20",42.98,24.44,,,
"CA002201799","1995-04-21",48.56,17.78,,,
"CA002201799","1995-04-22",52.88,24.80,,,
"CA002201799","1995-04-23",54.50,31.10,,,
"CA002201799","1995-04-24",50.18,25.34,,,
"CA002201799","1995-04-25",41.72,25.16,,,
"CA002201799","1995-04-26",47.84,22.64,,,
"CA002201799","1995-04-27",49.28,22.64,,,
"CA002201799","1995-04-28",52.52,19.58,,,
"CA002201799","1995-04-29",53.78,28.76,,,
"CA002201799","1995-04-30",57.92,27.50,,,
"CA002201799","1995-05-01",53.24,30.92,,,
"CA002201799","1995-05-02",40.10,24.98,,,
"CA002201799","1995-05-03",47.84,14.90,,,
"CA002201799","1995-05-04",63.50,24.26,,,
"CA002201799","1995-05-05",67.64,27.86,,,
"CA002201799","1995-05-06",63.14,27.68,,,
"CA002201799","1995-05-07",74.30,33.08,,,
"CA002201799","1995-05-08",67.28,35.96,,,
"CA002201799","1995-05-09",52.88,28.40,,,
"CA002201799","1995-05-10",62.06,25.16,,,
"CA002201799","1995-05-11",55.76,27.86,,,
"CA002201799","1995-05-12",69.26,23.72,,,
"CA002201799","1995-05-13",52.88,26.60,,,
"CA002201799","1995-05-14",55.76,20.84,,,
"CA002201799","1995-05-15",66.56,25.70,,,
"CA002201799","1995-05-16",47.30,36.50,,,
"CA002201799","1995-05-17",44.60,31.46,,,
"CA002201799","1995-05-18",46.22,27.86,,,
"CA002201799","1995-05-19",49.82,23.00,,,
"CA002201799","1995-05-20",56.12,28.22,,,
"CA002201799","1995-05-21",61.34,31.64,,,
"CA002201799","1995-05-22",51.62,34.52,,,
"CA002201799","1995-05-23",53.06,28.94,,,
"CA002201799","1995-05-24",58.82,31.64,,,
"CA002201799","1995-05-25",67.82,29.12,,,
"CA002201799","1995-05-26",82.40,50.18,,,
"CA002201799","1995-05-27",88.34,48.56,,,
"CA002201799","1995-05-28",85.46,44.78,,,
"CA002201799","1995-05-29",77.72,47.84,,,
"CA002201799","1995-05-30",68.54,45.50,,,
"CA002201799","1995-05-31",69.08,38.12,,,
"CA002201799","1995-06-01",74.12,35.06,,,
"CA002201799","1995-06-02",76.82,35.96,,,
"CA002201799","1995-06-03",79.34,48.74,,,
"CA002201799","1995-06-05",77.72,43.34,,,
"CA002201799","1995-06-06",68.72,48.92,,,
"CA002201799","1995-06-07",76.64,39.74,,,
"CA002201799","1995-06-08",83.84,46.94,,,
"CA002201799","1995-06-09",86.00,40.28,,,
"CA002201799","1995-06-11",87.80,43.70,,,
"CA002201799","1995-06-12",82.40,43.34,,,
"CA002201799","1995-06-13",79.88,44.42,,,
"CA002201799","1995-06-14",73.58,54.32,,,
"CA002201799","1995-06-15",75.56,49.82,,,
"CA002201799","1995-06-17",77.54,,,,
"CA002201799","1995-06-18",75.74,50.72,,,
"CA002201799","1995-06-19",55.40,47.30,,,
"CA002201799","1995-06-20",54.68,44.06,,,
"CA002201799","1995-06-21",72.14,42.26,,,
"CA002201799","1995-06-22",80.78,50.18,,,
"CA002201799","1995-06-23",85.28,51.26,,,
"CA002201799","1995-06-25",73.22,51.44,,,
"CA002201799","1995-06-26",70.88,40.82,,,
"CA002201799","1995-06-27",61.88,44.78,,,
"CA002201799","1995-06-28",69.26,44.78,,,
"CA002201799","1995-06-29",69.26,44.78,,,
"CA002201799","1995-06-30",62.60,36.32,,,
"CA002201799","1995-07-01",65.66,45.14,,,
"CA002201799","1995-07-02",70.70,36.50,,,
"CA002201799","1995-07-03",61.52,46.40,,,
"CA002201799","1995-07-04",62.42,43.34,,,
"CA002201799","1995-07-05",62.06,42.62,,,
"CA002201799","1995-07-06",69.98,30.20,,,
"CA002201799","1995-07-07",79.34,46.94,,,
"CA002201799","1995-07-08",73.04,48.92,,,
"CA002201799","1995-07-09",62.78,42.26,,,
"CA002201799","1995-07-10",70.70,28.40,,,
"CA002201799","1995-07-11",73.76,33.80,,,
"CA002201799","1995-07-12",71.42,37.04,,,
"CA002201799","1995-07-13",70.88,36.32,,,
"CA002201799","1995-07-14",74.84,49.28,,,
"CA002201799","1995-07-15",80.42,41.54,,,
"CA002201799","1995-07-16",74.84,49.82,,,
"CA002201799","1995-07-17",72.86,40.82,,,
"CA002201799","1995-07-18",77.36,49.46,,,
"CA002201799","1995-07-19",67.10,52.16,,,
"CA002201799","1995-07-20",72.14,49.28,,,
"CA002201799","1995-07-21",68.72,55.58,,,
"CA002201799","1995-07-22",62.78,49.64,,,
"CA002201799","1995-07-23",65.48,45.86,,,
"CA002201799","1995-07-24",71.06,35.06,,,
"CA002201799","1995-07-25",74.84,46.22,,,
"CA002201799","1995-07-26",70.16,53.60,,,
"CA002201799","1995-07-27",64.94,51.08,,,
"CA002201799","1995-07-28",55.40,39.38,,,
"CA002201799","1995-07-29",68.72,30.02,,,
"CA002201799","1995-07-30",71.96,37.94,,,
"CA002201799","1995-07-31",65.48,48.74,,,
"CA002201799","1995-08-01",72.50,47.30,,,
"CA002201799","1995-08-02",78.26,49.46,,,
"CA002201799","1995-08-03",78.08,51.44,,,
"CA002201799","1995-08-04",78.26,55.94,,,
"CA002201799","1995-08-05",58.82,51.62,,,
"CA002201799","1995-08-06",70.34,46.40,,,
"CA002201799","1995-08-07",63.50,45.50,,,
"CA002201799","1995-08-08",69.62,37.58,,,
"CA002201799","1995-08-09",70.16,34.16,,,
"CA002201799","1995-08-10",70.70,32.54,,,
"CA002201799","1995-08-11",70.52,45.50,,,
"CA002201799","1995-08-13",77.00,43.16,,,
"CA002201799","1995-08-14",79.34,42.62,,,
"CA002201799","1995-08-15",72.14,49.64,,,
"CA002201799","1995-08-16",64.76,50.54,,,
"CA002201799","1995-08-17",67.46,47.30,,,
"CA002201799","1995-08-18",71.78,52.52,,,
"CA002201799","1995-08-19",67.46,51.26,,,
"CA002201799","1995-08-20",62.60,43.16,,,
"CA002201799","1995-08-21",64.58,41.90,,,
"CA002201799","1995-08-22",69.62,33.44,,,
"CA002201799","1995-08-23",68.00,41.00,,,
"CA002201799","1995-08-24",66.56,34.52,,,
"CA002201799","1995-08-25",68.00,42.08,,,
"CA002201799","1995-08-26",53.78,43.88,,,
"CA002201799","1995-08-27",61.16,34.88,,,
"CA002201799","1995-08-28",54.68,42.44,,,
"CA002201799","1995-08-29",58.46,41.18,,,
"CA002201799","1995-08-30",71.42,44.24,,,
"CA002201799","1995-08-31",59.00,37.22,,,
"CA002201799","1995-09-01",62.06,41.72,,,
"CA002201799","1995-09-02",71.60,46.76,,,
"CA002201799","1995-09-03",60.80,41.72,,,
"CA002201799","1995-09-04",71.78,38.30,,,
"CA002201799","1995-09-05",53.78,34.70,,,
"CA002201799","1995-09-06",71.24,37.94,,,
"CA002201799","1995-09-07",58.10,,,,
"CA002201799","1995-09-08",69.62,47.84,,,
"CA002201799","1995-09-09",71.42,37.76,,,
"CA002201799","1995-09-10",76.10,47.48,,,
"CA002201799","1995-09-11",63.50,43.16,,,
"CA002201799","1995-09-12",58.10,44.42,,,
"CA002201799","1995-09-13",68.36,41.36,,,
"CA002201799","1995-09-15",63.50,39.20,,,
"CA002201799","1995-09-16",48.56,35.96,,,
"CA002201799","1995-09-17",43.16,35.24,,,
"CA002201799","1995-09-18",50.54,28.94,,,
"CA002201799","1995-09-19",51.98,22.46,,,
"CA002201799","1995-09-20",65.84,26.24,,,
"CA002201799","1995-09-21",77.00,34.70,,,
"CA002201799","1995-09-22",70.34,37.22,,,
"CA002201799","1995-09-23",84.38,36.68,,,
"CA002201799","1995-09-24",84.92,42.98,,,
"CA002201799","1995-09-25",72.14,37.40,,,
"CA002201799","1995-09-26",64.76,36.68,,,
"CA002201799","1995-09-27",55.22,43.88,,,
"CA002201799","1995-09-28",54.50,36.86,,,
"CA002201799","1995-09-29",44.24,29.66,,,
"CA002201799","1995-09-30",42.62,32.72,,,
"CA002201799","1995-10-01",56.12,28.04,,,
"CA002201799","1995-10-02",52.70,25.34,,,
"CA002201799","1995-10-03",44.06,34.88,,,
"CA002201799","1995-10-04",40.28,27.68,,,
"CA002201799","1995-10-05",46.04,28.58,,,
"CA002201799","1995-10-06",47.66,38.66,,,
"CA002201799","1995-10-07",42.62,35.96,,,
"CA002201799","1995-10-08",46.22,27.32,,,
"CA002201799","1995-10-09",42.26,37.04,,,
"CA002201799","1995-10-10",40.28,31.64,,,
"CA002201799","1995-10-11",38.48,34.70,,,
"CA002201799","1995-10-13",36.32,21.02,,,
"CA002201799","1995-10-14",35.96,30.20,,,
"CA002201799","1995-10-15",34.52,25.70,,,
"CA002201799","1995-10-16",29.84,24.44,,,
"CA002201799","1995-10-17",34.52,22.10,,,
"CA002201799","1995-10-18",35.78,19.04,,,
"CA002201799","1995-10-19",41.36,,,,
"CA002201799","1995-10-20",45.50,30.56,,,
"CA002201799","1995-10-21",34.70,25.70,,,
"CA002201799","1995-10-22",28.76,10.94,,,
"CA002201799","1995-10-23",29.84,11.48,,,
"CA002201799","1995-10-24",31.28,26.60,,,
"CA002201799","1995-10-25",36.68,26.78,,,
"CA002201799","1995-10-26",33.08,23.00,,,
"CA002201799","1995-10-27",24.08,8.24,,,
"CA002201799","1995-10-28",28.58,18.14,,,
"CA002201799","1995-10-29",23.54,5.18,,,
"CA002201799","1995-10-30",21.92,4.64,,,
"CA002201799","1995-10-31",16.52,-13.00,,,
"CA002201799","1995-11-01",25.52,-1.84,,,
"CA002201799","1995-11-02",30.92,2.48,,,
"CA002201799","1995-11-03",32.72,5.90,,,
"CA002201799","1995-11-04",23.54,6.44,,,
"CA002201799","1995-11-05",21.92,12.02,,,
"CA002201799","1995-11-06",16.88,5.72,,,
"CA002201799","1995-11-07",5.72,-2.38,,,
"CA002201799","1995-11-08",5.54,-1.84,,,
"CA002201799","1995-11-09",11.66,3.20,,,
"CA002201799","1995-11-10",10.94,1.40,,,
"CA002201799","1995-11-11",5.54,-0.94,,,
"CA002201799","1995-11-12",8.96,,,,
"CA002201799","1995-11-13",9.86,-20.56,,,
"CA002201799","1995-11-14",8.24,-8.68,,,
"CA002201799","1995-11-15",16.70,-20.56,,,
"CA002201799","1995-11-16",19.22,14.00,,,
"CA002201799","1995-11-17",20.30,5.54,,,
"CA002201799","1995-11-18",20.48,7.16,,,
"CA002201799","1995-11-19",15.08,10.58,,,
"CA002201799","1995-11-20",13.64,9.86,,,
"CA002201799","1995-11-21",14.00,-2.74,,,
"CA002201799","1995-11-22",-1.84,-27.58,,,
"CA002201799","1995-11-23",-14.98,-31.18,,,
"CA002201799","1995-11-24",-13.90,-34.24,,,
"CA002201799","1995-11-25",-4.72,-24.16,,,
"CA002201799","1995-11-26",-2.20,-4.90,,,
"CA002201799","1995-11-27",-4.90,-26.86,,,
"CA002201799","1995-11-28",-8.68,-29.92,,,
"CA002201799","1995-11-29",-9.58,-26.50,,,
"CA002201799","1995-11-30",-16.60,-31.72,,,
"CA002201799","1995-12-01",-9.22,-23.62,,,
"CA002201799","1995-12-02",-3.28,-20.38,,,
"CA002201799","1995-12-03",-9.04,-20.02,,,
"CA002201799","1995-12-04",-18.04,-26.50,,,
"CA002201799","1995-12-05",-26.32,-36.76,,,
"CA002201799","1995-12-06",-20.38,-29.20,,,
"CA002201799","1995-12-07",-23.80,-39.10,,,
"CA002201799","1995-12-08",-13.90,-30.10,,,
"CA002201799","1995-12-09",-18.94,-27.94,,,
"CA002201799","1995-12-10",-27.04,-43.42,,,
"CA002201799","1995-12-11",-18.22,-42.88,,,
"CA002201799","1995-12-12",-13.00,-26.32,,,
"CA002201799","1995-12-13",-8.14,-20.38,,,
"CA002201799","1995-12-14",-8.50,-11.20,,,
"CA002201799","1995-12-15",-6.52,-15.16,,,
"CA002201799","1995-12-16",-7.96,-13.72,,,
"CA002201799","1995-12-17",-9.58,-14.26,,,
"CA002201799","1995-12-18",-7.78,-16.06,,,
"CA002201799","1995-12-19",-4.18,-18.76,,,
"CA002201799","1995-12-20",1.76,-7.78,,,
"CA002201799","1995-12-21",-3.10,-13.90,,,
"CA002201799","1995-12-22",-0.40,-5.98,,,
"CA002201799","1995-12-23",-1.30,-4.90,,,
"CA002201799","1995-12-24",4.46,-8.14,,,
"CA002201799","1995-12-25",8.60,-4.90,,,
"CA002201799","1995-12-26",9.32,,,,
"CA002201799","1995-12-27",9.14,1.40,,,
"CA002201799","1995-12-28",5.72,2.30,,,
"CA002201799","1995-12-29",10.94,5.00,,,
"CA002201799","1995-12-30",12.38,9.32,,,
"CA002201799","1995-12-31",11.84,8.42,,,
"CA002201799","1996-01-01",14.90,6.08,,,
"CA002201799","1996-01-02",17.24,6.80,,,
"CA002201799","1996-01-03",6.80,-18.40,,,
"CA002201799","1996-01-04",-2.92,-20.56,,,
"CA002201799","1996-01-05",-7.60,-30.64,,,
"CA002201799","1996-01-06",-5.62,-30.82,,,
"CA002201799","1996-01-07",-4.90,-16.42,,,
"CA002201799","1996-01-08",-3.46,-12.64,,,
"CA002201799","1996-01-09",-9.94,-16.42,,,
"CA002201799","1996-01-10",-13.36,-19.12,,,
"CA002201799","1996-01-11",-17.86,-26.68,,,
"CA002201799","1996-01-12",-26.14,-45.40,,,
"CA002201799","1996-01-13",-16.96,-47.02,,,
"CA002201799","1996-01-14",-12.82,-35.14,,,
"CA002201799","1996-01-15",-16.42,-37.12,,,
"CA002201799","1996-01-16",-22.90,-43.24,,,
"CA002201799","1996-01-17",-31.18,,,,
"CA002201799","1996-01-18",-30.28,-52.24,,,
"CA002201799","1996-01-19",-23.44,-47.20,,,
"CA002201799","1996-01-20",-2.38,-23.44,,,
"CA002201799","1996-01-21",3.20,-6.88,,,
"CA002201799","1996-01-22",-4.72,-34.60,,,
"CA002201799","1996-01-23",-7.06,-31.00,,,
"CA002201799","1996-01-24",-11.02,-33.88,,,
"CA002201799","1996-01-25",-7.96,-25.06,,,
"CA002201799","1996-01-26",-20.56,-38.02,,,
"CA002201799","1996-01-27",-20.02,-42.52,,,
"CA002201799","1996-01-28",-12.82,-34.96,,,
"CA002201799","1996-01-29",-14.98,-36.04,,,
"CA002201799","1996-01-30",-13.90,-34.24,,,
"CA002201799","1996-01-31",-19.84,-37.48,,,
"CA002201799","1996-02-01",-19.66,-42.16,,,
"CA002201799","1996-02-02",-15.52,-31.90,,,
"CA002201799","1996-02-03",-11.02,-33.88,,,
"CA002201799","1996-02-04",-10.12,-37.66,,,
"CA002201799","1996-02-05",4.64,-16.24,,,
"CA002201799","1996-02-06",6.44,0.32,,,
"CA002201799","1996-02-07",8.42,-2.20,,,
"CA002201799","1996-02-08",12.74,-6.70,,,
"CA002201799","1996-02-10",14.72,-7.24,,,
"CA002201799","1996-02-11",41.90,6.08,,,
"CA002201799","1996-02-12",34.88,-2.74,,,
"CA002201799","1996-02-13",5.54,-15.70,,,
"CA002201799","1996-02-14",-0.04,,,,
"CA002201799","1996-02-16",6.98,-9.40,,,
"CA002201799","1996-02-17",7.52,-9.58,,,
"CA002201799","1996-02-18",6.80,-13.18,,,
"CA002201799","1996-02-19",19.94,-13.54,,,
"CA002201799","1996-02-22",0.14,-24.70,,,
"CA002201799","1996-02-23",-10.84,-28.84,,,
"CA002201799","1996-02-24",-6.34,-33.16,,,
"CA002201799","1996-02-25",2.12,-37.66,,,
"CA002201799","1996-02-26",10.40,-30.28,,,
"CA002201799","1996-02-27",15.44,-19.12,,,
"CA002201799","1996-02-29",30.92,17.06,,,
"CA002201799","1996-03-01",21.74,,,,
"CA002201799","1996-03-02",13.10,-3.64,,,
"CA002201799","1996-03-03",2.30,-17.32,,,
"CA002201799","1996-03-04",2.30,-19.66,,,
"CA002201799","1996-03-05",6.98,-24.52,,,
"CA002201799","1996-03-06",2.66,-28.66,,,
"CA002201799","1996-03-07",17.06,-21.10,,,
"CA002201799","1996-03-08",25.16,-14.26,,,
"CA002201799","1996-03-09",22.10,-8.14,,,
"CA002201799","1996-03-10",21.38,12.02,,,
"CA002201799","1996-03-11",19.76,11.66,,,
"CA002201799","1996-03-12",12.20,-14.98,,,
"CA002201799","1996-03-13",18.50,-13.18,,,
"CA002201799","1996-03-14",25.70,-4.90,,,
"CA002201799","1996-03-15",27.32,1.76,,,
"CA002201799","1996-03-16",47.66,11.30,,,
"CA002201799","1996-03-17",25.16,-9.94,,,
"CA002201799","1996-03-18",10.94,-8.14,,,
"CA002201799","1996-03-19",18.14,1.22,,,
"CA002201799","1996-03-20",1.58,-9.22,,,
"CA002201799","1996-03-21",1.22,-29.56,,,
"CA002201799","1996-03-22",2.12,-36.22,,,
"CA002201799","1996-03-23",20.48,-37.84,,,
"CA002201799","1996-03-24",18.14,-20.74,,,
"CA002201799","1996-03-25",14.00,1.40,,,
"CA002201799","1996-03-27",30.74,-11.20,,,
"CA002201799","1996-03-28",28.04,8.06,,,
"CA002201799","1996-03-29",18.50,3.20,,,
"CA002201799","1996-03-30",11.48,-8.68,,,
"CA002201799","1996-03-31",13.82,-20.92,,,
"CA002201799","1996-04-01",8.96,-26.50,,,
"CA002201799","1996-04-02",18.14,-7.06,,,
"CA002201799","1996-04-03",32.00,-14.44,,,
"CA002201799","1996-04-04",42.80,-3.28,,,
"CA002201799","1996-04-05",58.64,25.34,,,
"CA002201799","1996-04-06",42.62,30.56,,,
"CA002201799","1996-04-07",50.72,32.00,,,
"CA002201799","1996-04-08",44.42,26.24,,,
"CA002201799","1996-04-09",35.96,19.04,,,
"CA002201799","1996-04-10",24.98,5.36,,,
"CA002201799","1996-04-11",33.44,-7.24,,,
"CA002201799","1996-04-12",34.88,-1.84,,,
"CA002201799","1996-04-13",41.54,-0.76,,,
"CA002201799","1996-04-14",38.48,9.32,,,
"CA002201799","1996-04-15",37.58,9.50,,,
"CA002201799","1996-04-16",33.08,19.94,,,
"CA002201799","1996-04-17",20.84,9.50,,,
"CA002201799","1996-04-18",28.22,17.60,,,
"CA002201799","1996-04-19",32.90,19.94,,,
"CA002201799","1996-04-20",32.36,8.06,,,
"CA002201799","1996-04-21",37.22,1.76,,,
"CA002201799","1996-04-22",43.52,6.98,,,
"CA002201799","1996-04-23",54.68,23.18,,,
"CA002201799","1996-04-24",52.88,30.20,,,